Time,TemperatureF,DewpointF,PressureIn,WindDirection,WindDirectionDegrees,WindSpeedMPH,WindSpeedGustMPH,Humidity,HourlyPrecipIn,Conditions,Clouds,dailyrainin,SoftwareType,DateUTC
2014-01-25 00:02:00,45.9,27.3,30.21,North,0,0.0,1.0,48,0.00,,,0.00,meteohub,2014-01-25 08:02:00,
2014-01-25 00:07:00,45.9,27.3,30.21,North,0,0.0,1.0,48,0.00,,,0.00,meteohub,2014-01-25 08:07:00,
2014-01-25 00:12:00,45.7,27.7,30.21,North,0,0.0,1.0,49,0.00,,,0.00,meteohub,2014-01-25 08:12:00,
2014-01-25 00:19:00,45.7,27.7,30.21,North,0,0.0,0.0,49,0.00,,,0.00,meteohub,2014-01-25 08:19:00,
2014-01-25 00:24:00,45.7,27.7,30.21,North,0,0.0,0.0,49,0.00,,,0.00,meteohub,2014-01-25 08:24:00,
2014-01-25 00:29:00,45.7,27.1,30.21,North,0,0.0,0.0,48,0.00,,,0.00,meteohub,2014-01-25 08:29:00,
2014-01-25 00:34:00,45.9,27.3,30.21,West,270,0.0,0.0,48,0.00,,,0.00,meteohub,2014-01-25 08:34:00,
2014-01-25 00:39:00,45.9,27.9,30.21,West,270,0.0,0.0,49,0.00,,,0.00,meteohub,2014-01-25 08:39:00,
2014-01-25 00:44:00,45.9,27.3,30.21,West,270,1.0,0.0,48,0.00,,,0.00,meteohub,2014-01-25 08:44:00,
2014-01-25 00:49:00,45.7,27.1,30.21,West,270,0.0,1.0,48,0.00,,,0.00,meteohub,2014-01-25 08:49:00,
2014-01-25 00:54:00,45.3,25.7,30.21,West,270,0.0,1.0,46,0.00,,,0.00,meteohub,2014-01-25 08:54:00,
2014-01-25 00:59:00,45.0,25.3,30.21,West,270,2.0,2.0,46,0.00,,,0.00,meteohub,2014-01-25 08:59:00,
2014-01-25 01:04:00,45.0,25.3,30.21,West,270,2.0,2.0,46,0.00,,,0.00,meteohub,2014-01-25 09:04:00,
2014-01-25 01:09:00,44.1,25.7,30.21,SW,225,0.0,2.0,48,0.00,,,0.00,meteohub,2014-01-25 09:09:00,
2014-01-25 01:14:00,43.9,25.5,30.21,SW,225,1.0,2.0,48,0.00,,,0.00,meteohub,2014-01-25 09:14:00,
2014-01-25 01:19:00,43.5,25.7,30.21,SW,225,0.0,2.0,49,0.00,,,0.00,meteohub,2014-01-25 09:19:00,
2014-01-25 01:24:00,43.2,25.7,30.21,SW,225,0.0,2.0,50,0.00,,,0.00,meteohub,2014-01-25 09:24:00,
2014-01-25 01:29:00,43.0,26.1,30.21,SW,225,0.0,1.0,51,0.00,,,0.00,meteohub,2014-01-25 09:29:00,
2014-01-25 01:34:00,43.0,26.6,30.21,North,0,1.0,0.0,52,0.00,,,0.00,meteohub,2014-01-25 09:34:00,
2014-01-25 01:39:00,42.8,26.4,30.21,North,0,0.0,1.0,52,0.00,,,0.00,meteohub,2014-01-25 09:39:00,
2014-01-25 01:44:00,42.8,26.4,30.21,West,270,0.0,1.0,52,0.00,,,0.00,meteohub,2014-01-25 09:44:00,
2014-01-25 01:49:00,42.8,26.8,30.21,West,270,0.0,1.0,53,0.00,,,0.00,meteohub,2014-01-25 09:49:00,
2014-01-25 01:54:00,42.8,26.8,30.21,West,270,0.0,0.0,53,0.00,,,0.00,meteohub,2014-01-25 09:54:00,
2014-01-25 01:59:00,42.6,26.6,30.21,West,270,0.0,0.0,53,0.00,,,0.00,meteohub,2014-01-25 09:59:00,
2014-01-25 02:04:00,42.6,26.6,30.21,West,270,0.0,0.0,53,0.00,,,0.00,meteohub,2014-01-25 10:04:00,
2014-01-25 02:09:00,42.4,27.5,30.21,West,270,0.0,0.0,55,0.00,,,0.00,meteohub,2014-01-25 10:09:00,
2014-01-25 02:14:00,42.4,27.5,30.21,West,270,0.0,0.0,55,0.00,,,0.00,meteohub,2014-01-25 10:14:00,
2014-01-25 02:19:00,42.6,27.5,30.21,West,270,1.0,0.0,55,0.00,,,0.00,meteohub,2014-01-25 10:19:00,
2014-01-25 02:24:00,42.8,28.2,30.21,North,0,0.0,0.0,56,0.00,,,0.00,meteohub,2014-01-25 10:24:00,
2014-01-25 02:29:00,43.0,28.4,30.20,North,0,0.0,2.0,56,0.00,,,0.00,meteohub,2014-01-25 10:29:00,
2014-01-25 02:35:00,43.5,28.9,30.21,North,0,0.0,2.0,56,0.00,,,0.00,meteohub,2014-01-25 10:35:00,
2014-01-25 02:40:00,43.9,28.8,30.21,NE,45,0.0,2.0,55,0.00,,,0.00,meteohub,2014-01-25 10:40:00,
2014-01-25 02:45:00,43.9,28.8,30.21,NE,45,0.0,0.0,55,0.00,,,0.00,meteohub,2014-01-25 10:45:00,
2014-01-25 02:51:00,44.4,28.4,30.21,NW,315,0.0,0.0,53,0.00,,,0.00,meteohub,2014-01-25 10:51:00,
2014-01-25 02:56:00,44.4,27.5,30.21,SW,225,0.0,0.0,51,0.00,,,0.00,meteohub,2014-01-25 10:56:00,
2014-01-25 03:01:00,44.4,27.5,30.21,SW,225,0.0,0.0,51,0.00,,,0.00,meteohub,2014-01-25 11:01:00,
2014-01-25 03:14:00,44.1,27.5,30.21,SW,225,0.0,0.0,52,0.00,,,0.00,meteohub,2014-01-25 11:14:00,
2014-01-25 03:19:00,44.1,27.5,30.21,SW,225,0.0,-999.0,52,0.00,,,0.00,meteohub,2014-01-25 11:19:00,
2014-01-25 03:39:00,43.9,27.3,30.21,SW,225,1.0,-999.0,52,0.00,,,0.00,meteohub,2014-01-25 11:39:00,
2014-01-25 03:44:00,44.1,27.5,30.21,SW,225,0.0,-999.0,52,0.00,,,0.00,meteohub,2014-01-25 11:44:00,
2014-01-25 03:49:00,44.1,27.5,30.21,SW,225,0.0,1.0,52,0.00,,,0.00,meteohub,2014-01-25 11:49:00,
2014-01-25 03:54:00,44.1,27.5,30.21,SW,225,0.0,1.0,52,0.00,,,0.00,meteohub,2014-01-25 11:54:00,
2014-01-25 03:59:00,44.1,27.5,30.21,NE,45,2.0,2.0,52,0.00,,,0.00,meteohub,2014-01-25 11:59:00,
2014-01-25 04:05:00,44.1,27.5,30.20,NE,45,2.0,0.0,52,0.00,,,0.00,meteohub,2014-01-25 12:05:00,
2014-01-25 04:10:00,45.7,28.6,30.20,NE,45,2.0,2.0,51,0.00,,,0.00,meteohub,2014-01-25 12:10:00,
2014-01-25 04:15:00,46.4,28.2,30.20,NE,45,2.0,2.0,49,0.00,,,0.00,meteohub,2014-01-25 12:15:00,
2014-01-25 04:20:00,47.1,27.9,30.19,NE,45,2.0,2.0,47,0.00,,,0.00,meteohub,2014-01-25 12:20:00,
2014-01-25 04:25:00,47.5,27.7,30.20,NE,45,4.0,4.0,46,0.00,,,0.00,meteohub,2014-01-25 12:25:00,
2014-01-25 04:30:00,48.0,28.2,30.19,NE,45,3.0,3.0,46,0.00,,,0.00,meteohub,2014-01-25 12:30:00,
2014-01-25 04:35:00,48.2,27.9,30.20,NE,45,3.0,4.0,45,0.00,,,0.00,meteohub,2014-01-25 12:35:00,
2014-01-25 04:40:00,48.4,27.5,30.20,NE,45,3.0,4.0,44,0.00,,,0.00,meteohub,2014-01-25 12:40:00,
2014-01-25 04:45:00,48.7,27.9,30.20,East,90,3.0,4.0,44,0.00,,,0.00,meteohub,2014-01-25 12:45:00,
2014-01-25 04:50:00,48.9,27.3,30.20,NE,45,5.0,5.0,43,0.00,,,0.00,meteohub,2014-01-25 12:50:00,
2014-01-25 04:55:00,49.3,27.7,30.19,NE,45,4.0,4.0,43,0.00,,,0.00,meteohub,2014-01-25 12:55:00,
2014-01-25 05:00:00,49.5,28.4,30.19,NE,45,4.0,5.0,44,0.00,,,0.00,meteohub,2014-01-25 13:00:00,
2014-01-25 05:05:00,49.6,28.6,30.19,NE,45,4.0,5.0,44,0.00,,,0.00,meteohub,2014-01-25 13:05:00,
2014-01-25 05:10:00,50.4,29.8,30.19,NE,45,3.0,5.0,45,0.00,,,0.00,meteohub,2014-01-25 13:10:00,
2014-01-25 05:24:00,51.3,29.5,30.19,NE,45,4.0,4.0,43,0.00,,,0.00,meteohub,2014-01-25 13:24:00,
2014-01-25 05:29:00,51.4,29.1,30.19,NE,45,2.0,-999.0,42,0.00,,,0.00,meteohub,2014-01-25 13:29:00,
2014-01-25 05:34:00,51.6,29.3,30.19,NE,45,2.0,4.0,42,0.00,,,0.00,meteohub,2014-01-25 13:34:00,
2014-01-25 05:39:00,51.8,28.8,30.19,East,90,2.0,4.0,41,0.00,,,0.00,meteohub,2014-01-25 13:39:00,
2014-01-25 05:44:00,52.3,28.0,30.19,NE,45,4.0,4.0,39,0.00,,,0.00,meteohub,2014-01-25 13:44:00,
2014-01-25 05:49:00,52.5,27.7,30.19,NE,45,3.0,5.0,38,0.00,,,0.00,meteohub,2014-01-25 13:49:00,
2014-01-25 05:59:00,53.2,27.7,30.19,North,0,2.0,5.0,37,0.00,,,0.00,meteohub,2014-01-25 13:59:00,
2014-01-25 06:04:00,53.2,27.7,30.19,East,90,3.0,3.0,37,0.00,,,0.00,meteohub,2014-01-25 14:04:00,
2014-01-25 06:15:00,53.2,27.0,30.19,North,0,2.0,3.0,36,0.00,,,0.00,meteohub,2014-01-25 14:15:00,
2014-01-25 06:20:00,53.2,27.0,30.19,NE,45,2.0,2.0,36,0.00,,,0.00,meteohub,2014-01-25 14:20:00,
2014-01-25 06:25:00,53.2,27.0,30.19,NE,45,3.0,3.0,36,0.00,,,0.00,meteohub,2014-01-25 14:25:00,
2014-01-25 06:30:00,53.4,27.1,30.19,NE,45,3.0,4.0,36,0.00,,,0.00,meteohub,2014-01-25 14:30:00,
2014-01-25 06:35:00,53.4,26.4,30.19,North,0,2.0,4.0,35,0.00,,,0.00,meteohub,2014-01-25 14:35:00,
2014-01-25 06:41:00,53.4,26.4,30.19,North,0,3.0,4.0,35,0.00,,,0.00,meteohub,2014-01-25 14:41:00,
2014-01-25 06:46:00,53.4,26.4,30.19,East,90,4.0,4.0,35,0.00,,,0.00,meteohub,2014-01-25 14:46:00,
2014-01-25 06:51:00,53.4,26.4,30.19,NE,45,3.0,4.0,35,0.00,,,0.00,meteohub,2014-01-25 14:51:00,
2014-01-25 06:56:00,53.6,26.6,30.19,NE,45,2.0,4.0,35,0.00,,,0.00,meteohub,2014-01-25 14:56:00,
2014-01-25 07:01:00,53.4,26.4,30.19,North,0,2.0,4.0,35,0.00,,,0.00,meteohub,2014-01-25 15:01:00,
2014-01-25 07:06:00,53.4,26.4,30.19,North,0,2.0,4.0,35,0.00,,,0.00,meteohub,2014-01-25 15:06:00,
2014-01-25 07:11:00,53.2,26.2,30.19,NE,45,2.0,2.0,35,0.00,,,0.00,meteohub,2014-01-25 15:11:00,
2014-01-25 07:16:00,53.2,26.2,30.19,East,90,4.0,4.0,35,0.00,,,0.00,meteohub,2014-01-25 15:16:00,
2014-01-25 07:21:00,53.2,26.2,30.19,NE,45,2.0,4.0,35,0.00,,,0.00,meteohub,2014-01-25 15:21:00,
2014-01-25 07:26:00,53.2,26.2,30.19,NE,45,2.0,4.0,35,0.00,,,0.00,meteohub,2014-01-25 15:26:00,
2014-01-25 07:35:00,53.6,25.9,30.19,NE,45,3.0,3.0,34,0.00,,,0.00,meteohub,2014-01-25 15:35:00,
2014-01-25 07:40:00,53.6,25.9,30.19,NE,45,3.0,3.0,34,0.00,,,0.00,meteohub,2014-01-25 15:40:00,
2014-01-25 08:14:00,54.9,25.5,30.19,NE,45,2.0,-999.0,32,0.00,,,0.00,meteohub,2014-01-25 16:14:00,
2014-01-25 08:19:00,54.9,25.5,30.19,NE,45,2.0,-999.0,32,0.00,,,0.00,meteohub,2014-01-25 16:19:00,
2014-01-25 08:24:00,54.7,26.1,30.19,North,0,4.0,4.0,33,0.00,,,0.00,meteohub,2014-01-25 16:24:00,
2014-01-25 08:29:00,54.7,26.1,30.19,North,0,4.0,4.0,33,0.00,,,0.00,meteohub,2014-01-25 16:29:00,
2014-01-25 08:34:00,54.7,26.1,30.19,NE,45,3.0,4.0,33,0.00,,,0.00,meteohub,2014-01-25 16:34:00,
2014-01-25 08:39:00,54.7,26.1,30.19,NE,45,3.0,4.0,33,0.00,,,0.00,meteohub,2014-01-25 16:39:00,
2014-01-25 08:46:00,54.7,26.1,30.18,NE,45,3.0,3.0,33,0.00,,,0.00,meteohub,2014-01-25 16:46:00,
2014-01-25 08:51:00,54.7,26.1,30.19,NE,45,2.0,3.0,33,0.00,,,0.00,meteohub,2014-01-25 16:51:00,
2014-01-25 08:56:00,54.9,26.2,30.19,NE,45,2.0,3.0,33,0.00,,,0.00,meteohub,2014-01-25 16:56:00,
2014-01-25 09:01:00,55.0,26.4,30.18,North,0,3.0,3.0,33,0.00,,,0.00,meteohub,2014-01-25 17:01:00,
2014-01-25 09:06:00,55.0,26.4,30.19,North,0,3.0,3.0,33,0.00,,,0.00,meteohub,2014-01-25 17:06:00,
2014-01-25 09:11:00,56.1,26.6,30.19,North,0,3.0,4.0,32,0.00,,,0.00,meteohub,2014-01-25 17:11:00,
2014-01-25 09:16:00,57.0,27.5,30.19,North,0,4.0,4.0,32,0.00,,,0.00,meteohub,2014-01-25 17:16:00,
2014-01-25 09:21:00,57.6,27.9,30.19,NE,45,2.0,5.0,32,0.00,,,0.00,meteohub,2014-01-25 17:21:00,
2014-01-25 09:26:00,58.3,28.6,30.19,North,0,3.0,5.0,32,0.00,,,0.00,meteohub,2014-01-25 17:26:00,
2014-01-25 09:31:00,59.0,28.4,30.19,NE,45,3.0,8.0,31,0.00,,,0.00,meteohub,2014-01-25 17:31:00,
2014-01-25 09:36:00,59.7,28.9,30.19,NE,45,2.0,8.0,31,0.00,,,0.00,meteohub,2014-01-25 17:36:00,
2014-01-25 09:41:00,60.6,28.2,30.19,NE,45,4.0,8.0,29,0.00,,,0.00,meteohub,2014-01-25 17:41:00,
2014-01-25 09:46:00,61.5,27.1,30.19,NE,45,6.0,6.0,27,0.00,,,0.00,meteohub,2014-01-25 17:46:00,
2014-01-25 09:51:00,62.4,27.1,30.19,NE,45,5.0,8.0,26,0.00,,,0.00,meteohub,2014-01-25 17:51:00,
2014-01-25 09:56:00,63.1,26.8,30.19,East,90,4.0,8.0,25,0.00,,,0.00,meteohub,2014-01-25 17:56:00,
2014-01-25 10:01:00,63.3,25.9,30.19,North,0,5.0,11.0,24,0.00,,,0.00,meteohub,2014-01-25 18:01:00,
2014-01-25 10:06:00,63.3,25.9,30.19,North,0,5.0,11.0,24,0.00,,,0.00,meteohub,2014-01-25 18:06:00,
2014-01-25 10:11:00,64.2,25.7,30.19,NE,45,9.0,11.0,23,0.00,,,0.00,meteohub,2014-01-25 18:11:00,
2014-01-25 10:16:00,64.4,26.8,30.19,NE,45,5.0,9.0,24,0.00,,,0.00,meteohub,2014-01-25 18:16:00,
2014-01-25 10:21:00,64.8,27.1,30.19,North,0,7.0,9.0,24,0.00,,,0.00,meteohub,2014-01-25 18:21:00,
2014-01-25 10:27:00,65.1,27.5,30.19,East,90,3.0,9.0,24,0.00,,,0.00,meteohub,2014-01-25 18:27:00,
2014-01-25 10:32:00,65.7,26.8,30.19,NE,45,7.0,9.0,23,0.00,,,0.00,meteohub,2014-01-25 18:32:00,
2014-01-25 10:37:00,66.4,27.5,30.19,NE,45,7.0,7.0,23,0.00,,,0.00,meteohub,2014-01-25 18:37:00,
2014-01-25 10:42:00,66.9,25.7,30.19,East,90,8.0,8.0,21,0.00,,,0.00,meteohub,2014-01-25 18:42:00,
2014-01-25 10:47:00,67.5,27.3,30.19,NE,45,3.0,8.0,22,0.00,,,0.00,meteohub,2014-01-25 18:47:00,
2014-01-25 10:52:00,68.0,27.7,30.19,NE,45,4.0,8.0,22,0.00,,,0.00,meteohub,2014-01-25 18:52:00,
2014-01-25 10:57:00,68.5,27.1,30.19,North,0,3.0,8.0,21,0.00,,,0.00,meteohub,2014-01-25 18:57:00,
2014-01-25 11:02:00,67.6,26.2,30.18,NE,45,6.0,7.0,21,0.00,,,0.00,meteohub,2014-01-25 19:02:00,
2014-01-25 11:07:00,67.6,26.2,30.18,NE,45,6.0,7.0,21,0.00,,,0.00,meteohub,2014-01-25 19:07:00,
2014-01-25 11:12:00,69.1,25.2,30.18,NE,45,6.0,9.0,19,0.00,,,0.00,meteohub,2014-01-25 19:12:00,
2014-01-25 11:17:00,69.1,25.2,30.18,NE,45,8.0,9.0,19,0.00,,,0.00,meteohub,2014-01-25 19:17:00,
2014-01-25 11:22:00,69.3,25.2,30.18,NE,45,6.0,10.0,19,0.00,,,0.00,meteohub,2014-01-25 19:22:00,
2014-01-25 11:27:00,69.8,24.4,30.18,East,90,9.0,10.0,18,0.00,,,0.00,meteohub,2014-01-25 19:27:00,
2014-01-25 11:32:00,70.2,24.6,30.17,NE,45,8.0,9.0,18,0.00,,,0.00,meteohub,2014-01-25 19:32:00,
2014-01-25 11:37:00,70.5,25.0,30.17,East,90,3.0,9.0,18,0.00,,,0.00,meteohub,2014-01-25 19:37:00,
2014-01-25 11:42:00,71.2,25.5,30.17,NE,45,4.0,9.0,18,0.00,,,0.00,meteohub,2014-01-25 19:42:00,
2014-01-25 11:47:00,71.8,24.6,30.17,NE,45,6.0,8.0,17,0.00,,,0.00,meteohub,2014-01-25 19:47:00,
2014-01-25 11:52:00,72.0,23.4,30.17,NE,45,7.0,7.0,16,0.00,,,0.00,meteohub,2014-01-25 19:52:00,
2014-01-25 11:57:00,72.1,23.5,30.16,NE,45,6.0,7.0,16,0.00,,,0.00,meteohub,2014-01-25 19:57:00,
2014-01-25 12:02:00,72.3,25.0,30.16,NE,45,4.0,7.0,17,0.00,,,0.00,meteohub,2014-01-25 20:02:00,
2014-01-25 12:07:00,73.0,24.3,30.16,North,0,4.0,7.0,16,0.00,,,0.00,meteohub,2014-01-25 20:07:00,
2014-01-25 12:12:00,73.4,24.4,30.16,NE,45,5.0,6.0,16,0.00,,,0.00,meteohub,2014-01-25 20:12:00,
2014-01-25 12:17:00,73.8,24.8,30.15,North,0,4.0,6.0,16,0.00,,,0.00,meteohub,2014-01-25 20:17:00,
2014-01-25 12:22:00,74.1,25.0,30.15,East,90,4.0,6.0,16,0.00,,,0.00,meteohub,2014-01-25 20:22:00,
2014-01-25 12:27:00,74.3,23.7,30.15,NE,45,4.0,6.0,15,0.00,,,0.00,meteohub,2014-01-25 20:27:00,
2014-01-25 12:32:00,74.7,23.9,30.14,East,90,4.0,6.0,15,0.00,,,0.00,meteohub,2014-01-25 20:32:00,
2014-01-25 12:37:00,74.8,22.5,30.14,NE,45,8.0,8.0,14,0.00,,,0.00,meteohub,2014-01-25 20:37:00,
2014-01-25 12:42:00,74.8,22.5,30.13,NE,45,6.0,8.0,14,0.00,,,0.00,meteohub,2014-01-25 20:42:00,
2014-01-25 12:47:00,74.8,22.5,30.13,NE,45,4.0,8.0,14,0.00,,,0.00,meteohub,2014-01-25 20:47:00,
2014-01-25 12:52:00,75.6,23.0,30.13,NE,45,4.0,8.0,14,0.00,,,0.00,meteohub,2014-01-25 20:52:00,
2014-01-25 12:57:00,75.7,23.2,30.12,East,90,4.0,7.0,14,0.00,,,0.00,meteohub,2014-01-25 20:57:00,
2014-01-25 13:02:00,75.9,21.6,30.13,NE,45,5.0,6.0,13,0.00,,,0.00,meteohub,2014-01-25 21:02:00,
2014-01-25 13:07:00,76.3,21.7,30.13,NE,45,4.0,6.0,13,0.00,,,0.00,meteohub,2014-01-25 21:07:00,
2014-01-25 13:12:00,76.8,22.3,30.12,NE,45,2.0,5.0,13,0.00,,,0.00,meteohub,2014-01-25 21:12:00,
2014-01-25 13:17:00,76.5,21.9,30.12,East,90,4.0,5.0,13,0.00,,,0.00,meteohub,2014-01-25 21:17:00,
2014-01-25 13:20:00,77.5,22.8,30.12,SE,135,2.0,4.0,13,0.00,,,0.00,meteohub,2014-01-25 21:20:00,
2014-01-25 13:25:00,78.1,21.4,30.12,East,90,4.0,4.0,12,0.00,,,0.00,meteohub,2014-01-25 21:25:00,
2014-01-25 13:30:00,77.9,21.2,30.11,North,0,2.0,5.0,12,0.00,,,0.00,meteohub,2014-01-25 21:30:00,
2014-01-25 13:36:00,78.3,21.6,20.46,NE,45,5.0,5.0,12,0.00,,,0.00,meteohub,2014-01-25 21:36:00,
2014-01-25 13:41:00,78.1,19.2,15.16,East,90,3.0,6.0,11,0.00,,,0.00,meteohub,2014-01-25 21:41:00,
2014-01-25 13:46:00,77.9,21.2,30.11,NE,45,3.0,6.0,12,0.00,,,0.00,meteohub,2014-01-25 21:46:00,
2014-01-25 13:51:00,78.3,21.6,30.10,NE,45,2.0,6.0,12,0.00,,,0.00,meteohub,2014-01-25 21:51:00,
2014-01-25 13:56:00,78.6,19.8,30.10,NE,45,3.0,4.0,11,0.00,,,0.00,meteohub,2014-01-25 21:56:00,
2014-01-25 14:01:00,78.6,21.7,30.10,East,90,2.0,4.0,12,0.00,,,0.00,meteohub,2014-01-25 22:01:00,
2014-01-25 14:06:00,79.0,19.9,30.10,East,90,2.0,4.0,11,0.00,,,0.00,meteohub,2014-01-25 22:06:00,
2014-01-25 14:11:00,79.0,19.9,15.16,North,0,2.0,4.0,11,0.00,,,0.00,meteohub,2014-01-25 22:11:00,
2014-01-25 14:16:00,79.2,20.1,30.10,NE,45,4.0,4.0,11,0.00,,,0.00,meteohub,2014-01-25 22:16:00,
2014-01-25 14:21:00,79.3,20.3,30.10,NW,315,2.0,4.0,11,0.00,,,0.00,meteohub,2014-01-25 22:21:00,
2014-01-25 14:26:00,79.7,20.5,30.09,NE,45,2.0,4.0,11,0.00,,,0.00,meteohub,2014-01-25 22:26:00,
2014-01-25 14:31:00,80.1,20.8,30.09,North,0,2.0,4.0,11,0.00,,,0.00,meteohub,2014-01-25 22:31:00,
2014-01-25 14:36:00,80.6,19.0,30.09,South,180,2.0,3.0,10,0.00,,,0.00,meteohub,2014-01-25 22:36:00,
2014-01-25 14:41:00,80.6,19.0,30.09,NE,45,1.0,3.0,10,0.00,,,0.00,meteohub,2014-01-25 22:41:00,
2014-01-25 14:46:00,80.6,19.0,30.09,East,90,2.0,4.0,10,0.00,,,0.00,meteohub,2014-01-25 22:46:00,
2014-01-25 14:51:00,80.8,19.2,30.09,NE,45,2.0,4.0,10,0.00,,,0.00,meteohub,2014-01-25 22:51:00,
2014-01-25 14:56:00,80.8,19.2,30.09,North,0,2.0,3.0,10,0.00,,,0.00,meteohub,2014-01-25 22:56:00,
2014-01-25 15:01:00,80.8,19.2,30.09,SW,225,1.0,3.0,10,0.00,,,0.00,meteohub,2014-01-25 23:01:00,
2014-01-25 15:06:00,80.8,19.2,30.08,SW,225,1.0,3.0,10,0.00,,,0.00,meteohub,2014-01-25 23:06:00,
2014-01-25 15:11:00,80.4,18.9,30.08,South,180,1.0,2.0,10,0.00,,,0.00,meteohub,2014-01-25 23:11:00,
2014-01-25 15:16:00,80.6,19.0,30.08,SSE,158,1.0,2.0,10,0.00,,,0.00,meteohub,2014-01-25 23:16:00,
2014-01-25 15:21:00,80.6,80.6,30.08,NE,45,2.0,2.0,0,0.00,,,0.00,meteohub,2014-01-25 23:21:00,
2014-01-25 15:26:00,80.1,80.1,30.07,NE,45,2.0,2.0,0,0.00,,,0.00,meteohub,2014-01-25 23:26:00,
2014-01-25 15:31:00,79.5,18.1,30.07,NE,45,1.0,3.0,10,0.00,,,0.00,meteohub,2014-01-25 23:31:00,
2014-01-25 15:37:00,79.0,17.8,30.07,SW,225,3.0,3.0,10,0.00,,,0.00,meteohub,2014-01-25 23:37:00,
2014-01-25 15:42:00,78.1,17.1,30.07,NE,45,2.0,3.0,10,0.00,,,0.00,meteohub,2014-01-25 23:42:00,
2014-01-25 15:48:00,77.4,18.7,30.07,East,90,2.0,3.0,11,0.00,,,0.00,meteohub,2014-01-25 23:48:00,
2014-01-25 15:53:00,77.0,18.5,30.07,East,90,1.0,3.0,11,0.00,,,0.00,meteohub,2014-01-25 23:53:00,
2014-01-25 15:58:00,76.6,18.1,30.07,South,180,2.0,2.0,11,0.00,,,0.00,meteohub,2014-01-25 23:58:00,
2014-01-25 16:03:00,76.5,18.0,30.07,South,180,1.0,2.0,11,0.00,,,0.00,meteohub,2014-01-26 00:03:00,
2014-01-25 16:08:00,75.7,19.6,30.07,NE,45,1.0,2.0,12,0.00,,,0.00,meteohub,2014-01-26 00:08:00,
2014-01-25 16:13:00,75.7,19.6,30.07,East,90,2.0,2.0,12,0.00,,,0.00,meteohub,2014-01-26 00:13:00,
2014-01-25 16:18:00,75.6,23.0,30.07,NE,45,0.0,2.0,14,0.00,,,0.00,meteohub,2014-01-26 00:18:00,
2014-01-25 16:23:00,75.4,26.1,30.07,SW,225,1.0,2.0,16,0.00,,,0.00,meteohub,2014-01-26 00:23:00,
2014-01-25 16:28:00,75.4,26.1,30.07,South,180,1.0,3.0,16,0.00,,,0.00,meteohub,2014-01-26 00:28:00,
2014-01-25 16:33:00,75.4,27.5,30.07,East,90,2.0,3.0,17,0.00,,,0.00,meteohub,2014-01-26 00:33:00,
2014-01-25 16:38:00,74.8,27.1,30.07,NE,45,1.0,2.0,17,0.00,,,0.00,meteohub,2014-01-26 00:38:00,
2014-01-25 16:44:00,74.1,27.9,30.07,SE,135,1.0,2.0,18,0.00,,,0.00,meteohub,2014-01-26 00:44:00,
2014-01-25 16:49:00,73.9,27.7,30.07,SE,135,0.0,1.0,18,0.00,,,0.00,meteohub,2014-01-26 00:49:00,
2014-01-25 16:54:00,72.5,27.9,30.06,South,180,2.0,2.0,19,0.00,,,0.00,meteohub,2014-01-26 00:54:00,
2014-01-25 16:59:00,71.8,28.6,30.06,SE,135,1.0,2.0,20,0.00,,,0.00,meteohub,2014-01-26 00:59:00,
2014-01-25 17:04:00,71.6,28.4,30.06,SE,135,1.0,2.0,20,0.00,,,0.00,meteohub,2014-01-26 01:04:00,
2014-01-25 17:09:00,70.3,29.7,30.07,SE,135,1.0,2.0,22,0.00,,,0.00,meteohub,2014-01-26 01:09:00,
2014-01-25 17:14:00,69.6,29.1,30.07,SE,135,0.0,1.0,22,0.00,,,0.00,meteohub,2014-01-26 01:14:00,
2014-01-25 17:19:00,69.1,29.7,30.07,SE,135,0.0,1.0,23,0.00,,,0.00,meteohub,2014-01-26 01:19:00,
2014-01-25 17:24:00,68.4,30.2,30.06,West,270,0.0,1.0,24,0.00,,,0.00,meteohub,2014-01-26 01:24:00,
2014-01-25 17:29:00,67.5,30.4,30.07,West,270,0.0,0.0,25,0.00,,,0.00,meteohub,2014-01-26 01:29:00,
2014-01-25 17:34:00,66.7,30.7,30.07,West,270,0.0,0.0,26,0.00,,,0.00,meteohub,2014-01-26 01:34:00,
2014-01-25 17:39:00,66.0,30.2,30.07,West,270,0.0,0.0,26,0.00,,,0.00,meteohub,2014-01-26 01:39:00,
2014-01-25 17:44:00,65.3,30.4,30.07,West,270,0.0,0.0,27,0.00,,,0.00,meteohub,2014-01-26 01:44:00,
2014-01-25 17:49:00,64.6,29.8,30.07,West,270,0.0,0.0,27,0.00,,,0.00,meteohub,2014-01-26 01:49:00,
2014-01-25 17:54:00,63.9,29.3,30.06,West,270,0.0,0.0,27,0.00,,,0.00,meteohub,2014-01-26 01:54:00,
2014-01-25 17:59:00,63.1,30.4,30.06,West,270,0.0,0.0,29,0.00,,,0.00,meteohub,2014-01-26 01:59:00,
2014-01-25 18:04:00,63.0,30.2,30.07,West,270,0.0,0.0,29,0.00,,,0.00,meteohub,2014-01-26 02:04:00,
2014-01-25 18:09:00,61.9,30.0,30.07,West,270,2.0,0.0,30,0.00,,,0.00,meteohub,2014-01-26 02:09:00,
2014-01-25 18:14:00,61.5,29.8,30.07,East,90,0.0,1.0,30,0.00,,,0.00,meteohub,2014-01-26 02:14:00,
2014-01-25 18:19:00,61.0,30.2,30.07,East,90,0.0,2.0,31,0.00,,,0.00,meteohub,2014-01-26 02:19:00,
2014-01-25 18:24:00,60.4,29.7,30.07,East,90,0.0,2.0,31,0.00,,,0.00,meteohub,2014-01-26 02:24:00,
2014-01-25 18:29:00,60.1,30.2,30.07,East,90,0.0,2.0,32,0.00,,,0.00,meteohub,2014-01-26 02:29:00,
2014-01-25 18:34:00,59.9,30.0,30.07,East,90,0.0,0.0,32,0.00,,,0.00,meteohub,2014-01-26 02:34:00,
2014-01-25 18:39:00,59.5,29.7,30.07,East,90,0.0,0.0,32,0.00,,,0.00,meteohub,2014-01-26 02:39:00,
2014-01-25 18:45:00,59.0,30.0,30.07,East,90,0.0,0.0,33,0.00,,,0.00,meteohub,2014-01-26 02:45:00,
2014-01-25 18:50:00,58.8,30.6,30.07,East,90,0.0,0.0,34,0.00,,,0.00,meteohub,2014-01-26 02:50:00,
2014-01-25 18:55:00,58.5,30.2,30.07,East,90,0.0,0.0,34,0.00,,,0.00,meteohub,2014-01-26 02:55:00,
2014-01-25 19:00:00,58.3,30.0,30.07,East,90,0.0,0.0,34,0.00,,,0.00,meteohub,2014-01-26 03:00:00,
2014-01-25 19:05:00,58.3,30.0,30.07,East,90,0.0,0.0,34,0.00,,,0.00,meteohub,2014-01-26 03:05:00,
2014-01-25 19:10:00,57.4,30.0,30.07,East,90,0.0,0.0,35,0.00,,,0.00,meteohub,2014-01-26 03:10:00,
2014-01-25 19:15:00,57.2,30.6,30.07,East,90,0.0,0.0,36,0.00,,,0.00,meteohub,2014-01-26 03:15:00,
2014-01-25 19:20:00,57.0,30.4,30.07,East,90,0.0,0.0,36,0.00,,,0.00,meteohub,2014-01-26 03:20:00,
2014-01-25 19:25:00,56.7,30.7,30.07,East,90,0.0,0.0,37,0.00,,,0.00,meteohub,2014-01-26 03:25:00,
2014-01-25 19:30:00,56.3,30.4,30.07,East,90,0.0,0.0,37,0.00,,,0.00,meteohub,2014-01-26 03:30:00,
2014-01-25 19:35:00,55.9,30.7,30.07,East,90,0.0,0.0,38,0.00,,,0.00,meteohub,2014-01-26 03:35:00,
2014-01-25 19:40:00,55.8,30.6,30.07,East,90,0.0,0.0,38,0.00,,,0.00,meteohub,2014-01-26 03:40:00,
2014-01-25 19:45:00,55.2,30.0,30.07,East,90,0.0,0.0,38,0.00,,,0.00,meteohub,2014-01-26 03:45:00,
2014-01-25 19:50:00,55.2,30.7,30.07,SW,225,2.0,2.0,39,0.00,,,0.00,meteohub,2014-01-26 03:50:00,
2014-01-25 19:55:00,55.2,30.7,30.07,West,270,1.0,2.0,39,0.00,,,0.00,meteohub,2014-01-26 03:55:00,
2014-01-25 20:00:00,55.0,30.6,30.07,West,270,0.0,2.0,39,0.00,,,0.00,meteohub,2014-01-26 04:00:00,
2014-01-25 20:05:00,55.0,30.6,30.07,West,270,0.0,2.0,39,0.00,,,0.00,meteohub,2014-01-26 04:05:00,
2014-01-25 20:10:00,54.9,30.4,30.07,West,270,1.0,1.0,39,0.00,,,0.00,meteohub,2014-01-26 04:10:00,
2014-01-25 20:15:00,54.7,30.2,30.07,West,270,0.0,1.0,39,0.00,,,0.00,meteohub,2014-01-26 04:15:00,
2014-01-25 20:20:00,54.7,30.2,30.07,West,270,0.0,1.0,39,0.00,,,0.00,meteohub,2014-01-26 04:20:00,
2014-01-25 20:26:00,54.3,30.6,30.08,West,270,0.0,1.0,40,0.00,,,0.00,meteohub,2014-01-26 04:26:00,
2014-01-25 20:31:00,54.1,30.9,30.07,West,270,2.0,2.0,41,0.00,,,0.00,meteohub,2014-01-26 04:31:00,
2014-01-25 20:36:00,53.8,30.6,30.08,West,270,0.0,2.0,41,0.00,,,0.00,meteohub,2014-01-26 04:36:00,
2014-01-25 20:45:00,53.1,29.3,30.08,West,270,0.0,0.0,40,0.00,,,0.00,meteohub,2014-01-26 04:45:00,
2014-01-25 20:50:00,52.7,29.1,30.08,West,270,0.0,0.0,40,0.00,,,0.00,meteohub,2014-01-26 04:50:00,
2014-01-25 20:55:00,52.2,29.1,30.07,West,270,0.0,0.0,41,0.00,,,0.00,meteohub,2014-01-26 04:55:00,
2014-01-25 21:00:00,51.8,28.8,30.07,West,270,0.0,0.0,41,0.00,,,0.00,meteohub,2014-01-26 05:00:00,
2014-01-25 21:01:00,51.8,28.8,30.07,West,270,0.0,0.0,41,0.00,,,0.00,meteohub,2014-01-26 05:01:00,
2014-01-25 21:02:00,51.8,28.8,30.07,West,270,0.0,0.0,41,0.00,,,0.00,meteohub,2014-01-26 05:02:00,
2014-01-25 21:03:00,51.8,28.8,30.07,West,270,0.0,0.0,41,0.00,,,0.00,meteohub,2014-01-26 05:03:00,
2014-01-25 21:08:00,51.3,28.9,30.07,NW,315,0.0,0.0,42,0.00,,,0.00,meteohub,2014-01-26 05:08:00,
2014-01-25 21:12:00,51.1,28.8,30.07,NW,315,0.0,0.0,42,0.00,,,0.00,meteohub,2014-01-26 05:12:00,
2014-01-25 21:17:00,50.9,28.6,30.07,NW,315,0.0,0.0,42,0.00,,,0.00,meteohub,2014-01-26 05:17:00,
2014-01-25 21:22:00,50.7,29.1,30.07,NW,315,0.0,0.0,43,0.00,,,0.00,meteohub,2014-01-26 05:22:00,
2014-01-25 21:27:00,50.5,28.9,30.07,NW,315,0.0,0.0,43,0.00,,,0.00,meteohub,2014-01-26 05:27:00,
2014-01-25 21:32:00,50.2,29.1,30.07,NW,315,0.0,0.0,44,0.00,,,0.00,meteohub,2014-01-26 05:32:00,
2014-01-25 21:37:00,50.0,28.9,30.07,NW,315,0.0,0.0,44,0.00,,,0.00,meteohub,2014-01-26 05:37:00,
2014-01-25 21:42:00,50.0,29.5,30.06,NW,315,0.0,0.0,45,0.00,,,0.00,meteohub,2014-01-26 05:42:00,
2014-01-25 21:47:00,50.2,29.1,30.06,NW,315,0.0,0.0,44,0.00,,,0.00,meteohub,2014-01-26 05:47:00,
2014-01-25 21:52:00,50.4,29.8,30.06,NW,315,0.0,0.0,45,0.00,,,0.00,meteohub,2014-01-26 05:52:00,
2014-01-25 21:57:00,50.5,29.5,30.06,NW,315,0.0,0.0,44,0.00,,,0.00,meteohub,2014-01-26 05:57:00,
2014-01-25 22:02:00,50.7,30.2,30.06,North,0,1.0,1.0,45,0.00,,,0.00,meteohub,2014-01-26 06:02:00,
2014-01-25 22:07:00,51.1,29.8,30.06,North,0,0.0,1.0,44,0.00,,,0.00,meteohub,2014-01-26 06:07:00,
2014-01-25 22:12:00,51.1,30.6,30.06,North,0,0.0,1.0,45,0.00,,,0.00,meteohub,2014-01-26 06:12:00,
2014-01-25 22:17:00,51.1,30.6,30.06,North,0,0.0,1.0,45,0.00,,,0.00,meteohub,2014-01-26 06:17:00,
2014-01-25 22:22:00,51.1,30.6,30.06,North,0,0.0,0.0,45,0.00,,,0.00,meteohub,2014-01-26 06:22:00,
2014-01-25 22:27:00,50.9,30.9,30.06,North,0,0.0,0.0,46,0.00,,,0.00,meteohub,2014-01-26 06:27:00,
2014-01-25 22:33:00,50.7,30.7,30.06,North,0,0.0,1.0,46,0.00,,,0.00,meteohub,2014-01-26 06:33:00,
2014-01-25 22:38:00,50.5,30.6,30.06,North,0,0.0,1.0,46,0.00,,,0.00,meteohub,2014-01-26 06:38:00,
2014-01-25 22:43:00,50.4,30.4,30.06,North,0,0.0,2.0,46,0.00,,,0.00,meteohub,2014-01-26 06:43:00,
2014-01-25 22:48:00,50.4,30.9,30.06,North,0,0.0,2.0,47,0.00,,,0.00,meteohub,2014-01-26 06:48:00,
2014-01-25 22:53:00,50.2,30.7,30.06,North,0,0.0,2.0,47,0.00,,,0.00,meteohub,2014-01-26 06:53:00,
2014-01-25 22:58:00,50.0,30.6,30.06,North,0,0.0,1.0,47,0.00,,,0.00,meteohub,2014-01-26 06:58:00,
2014-01-25 23:03:00,49.8,30.4,30.06,North,0,0.0,0.0,47,0.00,,,0.00,meteohub,2014-01-26 07:03:00,
2014-01-25 23:08:00,49.5,30.6,30.06,North,0,0.0,0.0,48,0.00,,,0.00,meteohub,2014-01-26 07:08:00,
2014-01-25 23:13:00,49.1,30.2,30.06,North,0,0.0,0.0,48,0.00,,,0.00,meteohub,2014-01-26 07:13:00,
2014-01-25 23:18:00,48.9,30.0,30.06,North,0,0.0,0.0,48,0.00,,,0.00,meteohub,2014-01-26 07:18:00,
2014-01-25 23:23:00,48.7,29.8,30.06,North,0,0.0,0.0,48,0.00,,,0.00,meteohub,2014-01-26 07:23:00,
2014-01-25 23:28:00,48.4,29.1,30.06,North,0,1.0,0.0,47,0.00,,,0.00,meteohub,2014-01-26 07:28:00,
2014-01-25 23:33:00,48.2,28.9,30.06,North,0,0.0,2.0,47,0.00,,,0.00,meteohub,2014-01-26 07:33:00,
2014-01-25 23:38:00,48.0,28.8,30.06,North,0,0.0,2.0,47,0.00,,,0.00,meteohub,2014-01-26 07:38:00,
2014-01-25 23:43:00,47.8,29.1,30.06,North,0,0.0,2.0,48,0.00,,,0.00,meteohub,2014-01-26 07:43:00,
2014-01-25 23:48:00,47.8,30.0,30.06,NE,45,2.0,2.0,50,0.00,,,0.00,meteohub,2014-01-26 07:48:00,
2014-01-25 23:53:00,48.2,30.4,30.06,North,0,2.0,2.0,50,0.00,,,0.00,meteohub,2014-01-26 07:53:00,
2014-01-25 23:58:00,48.7,30.4,30.06,NE,45,2.0,2.0,49,0.00,,,0.00,meteohub,2014-01-26 07:58:00,